Regional Weather Roundup
Issued by NWS

Home | Current Version | Previous Version | Graphics & Text | Print | Product List | Glossary On
Versions: 1 2 3 4 5 6 7 8 9 10 11 12 13 14 15 16 17 18 19 20 21 22 23 24 25 26 27 28 29 30 31 32 33 34 35 36 37 38 39 40 41 42 43 44 45 46 47 48 49 50
000
ASUS43 KBIS 012110
RWRND

NORTH DAKOTA REGIONAL WEATHER ROUNDUP
NATIONAL WEATHER SERVICE BISMARCK ND
400 PM CDT SAT OCT 01 2016

NOTE: "FAIR" INDICATES FEW OR NO CLOUDS BELOW 12,000 FEET WITH NO
SIGNIFICANT WEATHER AND/OR OBSTRUCTIONS TO VISIBILITY.


NDZ001>003-009>011-017-012200-
NORTHWEST NORTH DAKOTA

CITY           SKY/WX    TMP DP  RH WIND       PRES   REMARKS
WILLISTON      SUNNY     76  53  44 E7        29.91S
MINOT          SUNNY     75  52  44 SE8       29.94F
MINOT AFB      SUNNY     74  53  47 SE10      29.93F
$$

NDZ018>021-031>035-040>046-012200-
SOUTHWEST NORTH DAKOTA

CITY           SKY/WX    TMP DP  RH WIND       PRES   REMARKS
BISMARCK       SUNNY     77  50  38 S15G23    29.95F
DICKINSON      SUNNY     77  51  40 SE5       29.91F
GARRISON         N/A     75  52  44 S8        29.94F
HETTINGER ARPT SUNNY     80  51  36 SE5       29.94F
$$

NDZ004>008-012>016-024-026-027-054-012200-
NORTHEAST NORTH DAKOTA

CITY           SKY/WX    TMP DP  RH WIND       PRES   REMARKS
GRAND FORKS    PTSUNNY   72  52  49 SE15      30.06F
GRND FRKS AFB  MOSUNNY   71  55  56 SE12      30.06F
DEVILS LAKE    SUNNY     73  50  44 SE14G22   30.03F
$$

NDZ022-023-025-028>030-036>039-047>053-012200-
SOUTHEAST NORTH DAKOTA

CITY           SKY/WX    TMP DP  RH WIND       PRES   REMARKS
FARGO          MOSUNNY   74  53  48 SE12      30.06F
JAMESTOWN      SUNNY     71  50  47 SE13      30.02F
$$





USA.gov is the U.S. government's official web portal to all federal, state and local government web resources and services.